Погода в Седанове

Россия / Иркутская область     56°58′48″N   101°18′52″E
темп.,
°C
ветер,
м/с
пор.,
м/с
влажн.,
%
обл.,
%
осадки,
мм/ч
давл.,
гПа
погр.,
м
26 февраля, пт
пт2623:00−16ююз1198100 1.2 101630
02:00−17зсз31094100 1.2 1018409
05:00−19з2898100 0.0 1021263
08:00−23зюз2399100 0.1 102584
11:00−19зсз498097 0.0 1027816
14:00−18з487899 0.0 10261346
17:00−18зюз3879100 0.0 10261541
20:00−23з229092 0.1 102820
27 февраля, сб
сб2723:00−24юз269799 0.1 1030164
02:00−24зюз2799100 0.3 1031303
05:00−27зюз3995100 0.0 1032255
08:00−27юз279798 0.1 1033193
11:00−23зюз4786100 0.0 10331073
14:00−21зюз5881100 0.1 10331730
17:00−21зюз4785100 0.1 10331499
20:00−24зюз2299100 0.2 103433
28 февраля, вс
вс2823:00−26юз2498100 0.1 103591
02:00−25юз2898100 0.1 1036367
05:00−24юз2897100 0.1 1036456
08:00−25юз3997100 0.1 1036498
11:00−23з4788100 0.1 1038978
14:00−21зюз4784100 0.1 10381156
17:00−21з4786100 0.1 10371151
20:00−24зюз2297100 0.1 103826
1 марта, пн
пн123:00−27юз1199100 0.0 103719
02:00−26ююз1199100 0.1 103619
05:00−26ю1199100 0.1 103519
08:00−28ю1110097 0.1 103519
11:00−22ююв129375 0.0 1033230
14:00−17ю128285 0.1 1030755
17:00−18в1284100 0.1 1027490
20:00−23всв1295100 0.1 102720
2 марта, вт
вт223:00−27всв119865 0.0 102719
02:00−29св1110032 0.0 102619
05:00−30св121001 0.0 102619
08:00−31св111002 0.0 102619
11:00−23всв129223 0.0 1023208
14:00−18всв238359 0.0 1021476
17:00−18всв3588100 0.0 1019550
20:00−21св3895100 0.0 1020276